Location: Eisingen in Unterfranken
(49.7591°N, 9.8347°E)
Time: 03:56:27
(UTC+01:00)

BlueWalker 3 - Pass Details

Date: 06 December 2022
Orbit: 499 x 517 km, 53.2° (Epoch: 26 January)

Event Time Altitude Azimuth Distance (km) Brightness Sun altitude
Rises 18:55:20 0° 293° (WNW) 2,631 6.5 -23.9°
Reaches altitude 10° 18:57:33 10° 291° (WNW) 1,738 5.5 -24.3°
Enters shadow 19:00:49 57° 268° (W) 604 2.5 -24.8°
